カタログに戻る

METEOR 2-5 DEB

運用中PO
NORAD 45513·DEBRIS·🇷🇺 Russia

打ち上げ Oct 31, 1979 から Plesetsk Cosmodrome

Loading…

次のパス (今後24時間)

TLE

古いSource: Space-Track

元期: Aug 30, 2026, 06:21 UTC

1 45513U 79095CV  26242.26514815  .00004276  00000-0  13532-2 0  9991
2 45513  81.1939  75.0360 0007630 197.6459 162.4464 14.40007924675218

AllMySatでMETEOR 2-5 DEBをリアルタイム追跡

Download on the App Store